Location: Camp Crooked Creek
(37.9149°N, 85.6607°W)
Time: 15:25:30
(UTC-05:00)

Daily predictions for brighter satellites

Satellite Brightness Start Highest point End
(mag) Time Altitude Azimuth Time Altitude Azimuth Time Altitude Azimuth
Cosmos 1634 Rocket 4.0 18:11:48 10° N 18:18:00 72° E 18:24:07 10° SSE
IDEFIX/ARIANE 42P 2.9 18:15:00 10° S 18:20:12 76° WSW 18:25:27 10° NNW
BREEZE-M DEB (TANK) 3.9 18:16:06 10° WNW 18:20:18 58° SW 18:26:37 10° SE
Meteor 1-11 4.5 18:15:21 10° SSE 18:20:48 51° E 18:26:22 10° NNE
Lacrosse 5 rocket 1.4 18:21:05 10° NNW 18:24:47 48° NE 18:28:38 10° ESE
Aureole 2 Rocket 2.7 18:22:21 10° S 18:26:01 67° ESE 18:30:00 10° NNE
MSX 3.8 18:23:23 10° SSE 18:29:07 85° ENE 18:34:52 10° NNW
BREEZE-M DEB (TANK) 1.8 18:27:53 10° SW 18:30:38 82° SE 18:33:02 10° NE
Cosmos 372 Rocket 3.9 18:27:48 10° NNW 18:32:53 66° ENE 18:37:56 10° SSE
Cosmos 1626 3.3 18:30:15 10° SE 18:33:16 23° E 18:36:18 10° NE
Cosmos 2219 Rocket 3.4 18:28:46 10° SW 18:34:05 42° WNW 18:39:25 10° N
OTV 4 2.7 18:33:00 10° W 18:35:29 24° SSW 18:37:56 10° SSE
Cosmos 540 Rocket 3.8 18:30:49 10° SSW 18:35:58 70° WNW 18:41:09 10° NNE
YAOGAN 1 3.1 18:31:46 10° S 18:36:03 66° W 18:40:22 10° NNW
Cosmos 1328 4.4 18:32:18 10° SSW 18:36:11 60° W 18:40:06 10° N
Cosmos 2333 Rocket 3.1 18:31:21 10° SW 18:36:50 51° WNW 18:42:21 10° NNE
Cosmos 1707 Rocket 4.4 18:33:46 10° NNE 18:37:29 27° ENE 18:41:11 10° SE
Cosmos 304 Rocket 3.9 18:33:09 10° S 18:37:51 58° ESE 18:42:35 10° NNE
COSMO-SKYMED 1 2.6 18:34:34 10° NNE 18:38:53 62° E 18:43:10 10° S
BREEZE M DEB (TANK) 2.7 18:37:32 10° NW 18:39:44 22° NNE 18:40:58 15° ENE
USA 215 3.9 18:38:16 10° E 18:44:03 35° NNE 18:49:51 10° NNW
Cosmos 2151 3.3 18:40:14 10° SSW 18:44:24 68° W 18:48:36 10° N
CZ-4 R/B 3.5 18:42:30 10° SSW 18:45:55 30° W 18:49:24 10° NW
Cosmos 1666 Rocket 4.2 18:42:25 10° SSE 18:46:19 33° E 18:50:15 10° NNE
Cosmos 2278 Rocket 2.5 18:42:59 10° NNW 18:48:40 74° WSW 18:54:18 10° SSE
Cosmos 1726 3.0 18:46:10 10° NNW 18:49:53 55° W 18:53:34 10° S
Resurs 01 Rocket 3.1 18:49:20 14° E 18:50:33 16° ENE 18:53:12 10° NNE
Cosmos 1455 3.1 18:48:36 10° NNE 18:51:51 26° ENE 18:55:07 10° SE
Cosmos 1703 3.2 18:48:56 10° S 18:52:45 59° E 18:56:36 10° NNE
SJ-6B 3.7 18:49:44 10° SE 18:53:17 29° ENE 18:56:52 10° N
Tiangong 1 3.1 19:00:40 10° S 19:02:23 14° SE 19:02:54 14° SE
Cosmos 1900 4.4 18:57:53 10° NNW 19:02:47 58° ENE 19:07:42 10° SE
Cosmos 2279 Rocket 4.1 18:59:15 10° N 19:05:29 83° W 19:11:43 10° S
Cosmos 2237 Rocket 3.7 19:05:48 10° SW 19:10:54 35° WNW 19:16:03 10° N
Cosmos 2369 Rocket 4.0 19:13:39 10° NNE 19:15:09 13° NNE 19:15:09 13° NNE
SL-16 R/B 2.4 19:12:45 10° SSW 19:18:23 72° WNW 19:24:03 10° NNE
Lacrosse 4 Rocket 2.4 19:15:34 10° N 19:18:28 26° NE 19:18:28 26° NE
Cosmos 1470 Rocket 4.2 19:15:28 10° SSE 19:19:17 31° E 19:19:23 31° E
Cosmos 1340 Rocket 4.2 19:16:30 10° SSW 19:20:12 39° WNW 19:23:54 10° N
Nadezhda 4 Rocket 3.9 19:16:49 10° S 19:23:03 79° E 19:29:23 10° N
ALOS 2.7 19:19:20 10° SE 19:23:38 38° ENE 19:27:58 10° N
Cosmos 2242 Rocket 3.8 19:19:35 10° N 19:23:51 46° E 19:28:07 10° SSE
Cosmos 1805 Rocket 4.3 19:20:14 10° SSW 19:24:37 56° W 19:29:01 10° N
USA 229 DEB 3.7 19:18:01 10° SSW 19:24:46 67° ESE 19:29:44 20° NE
USA 229 3.7 19:18:07 10° SSW 19:24:52 66° ESE 19:29:47 20° NE
Spot 2 Rocket 3.9 19:21:06 10° SE 19:25:44 38° ENE 19:30:22 10° N
Cosmos 1184 Rocket 2.7 19:22:32 10° S 19:25:52 90° WSW 19:27:44 25° N
Cosmos 2297 4.0 19:26:52 10° NNW 19:32:33 69° WSW 19:38:13 10° S
Cosmos 292 Rocket 3.9 19:29:47 10° S 19:34:20 48° ESE 19:35:12 43° ENE
Iridium 4 Rocket 3.0 19:30:52 10° S 19:35:21 64° E 19:38:16 20° NNE
Cosmos 1869 3.2 19:33:18 10° N 19:37:19 62° E 19:41:19 10° SSE
Sich 1 3.6 19:35:22 10° SSW 19:39:44 60° W 19:44:08 10° N
Cosmos 1092 Rocket 3.9 19:38:07 10° S 19:44:26 83° E 19:50:49 10° N
Cosmos 1633 Rocket 3.8 19:44:24 10° SSW 19:48:42 53° W 19:53:02 10° N
FENGYUN 3A 3.5 19:43:30 10° SSE 19:48:48 69° ENE 19:54:10 10° N
Cosmos 923 Rocket 3.8 19:43:38 10° SSW 19:48:50 80° ESE 19:50:55 37° NNE
Cosmos 1680 Rocket 3.3 19:50:31 10° S 19:55:41 69° ESE 19:56:19 62° ENE
SL-19 R/B 4.3 19:50:49 10° SSE 19:56:46 87° WSW 20:02:25 10° NNW
Cosmos 1943 4.3 19:52:06 10° S 19:55:13 28° SE 19:55:13 28° SE
FREGAT/IRIS 4.5 19:55:39 10° SSW 19:58:24 31° W 20:01:11 10° NNW
Aureole 1 Rocket 4.2 19:54:21 10° SSW 19:59:33 64° WNW 20:06:31 10° NNE
Lacrosse 5 rocket 4.1 20:01:14 10° W 20:03:42 16° WSW 20:06:15 10° SSW
ATLAS 5 CENTAUR R/B 4.4 20:04:19 10° N 20:05:21 13° N 20:05:21 13° N
Cosmos 2195 Rocket 4.3 20:02:32 10° S 20:08:38 84° E 20:13:15 19° N
NOSS 3-1 (C) 3.7 20:11:25 10° SSW 20:15:40 47° SSE 20:15:40 47° SSE
Cosmos 1603 4.2 20:17:36 10° SW 20:23:05 57° WNW 20:24:34 44° NNW
Resurs 01 Rocket 2.6 20:26:52 45° W 20:26:52 45° W 20:30:55 10° NNW
USA 215 3.3 20:24:57 52° SSE 20:26:41 75° SW 20:33:15 10° NW
Cosmos 1655 Rocket 4.0 20:31:11 10° S 20:37:30 78° W 20:37:30 78° W
Lacrosse 4 Rocket 4.4 20:54:28 10° WNW 20:54:54 12° WNW 20:54:54 12° WNW
Cosmos 2369 Rocket 4.3 20:55:44 10° NNW 20:56:59 17° NNW 20:56:59 17° NNW
